Salina, KS

4:48 AM CDT on May 24, 2017 (GMT -0500)
Salina Municipal

Weather History for KSLN - March, 2015

Change the Weather History Date:

Tuesday, March 3, 2015

  Actual Average Record
Temperature  
Mean Temperature 38 °F 41 °F  
Max Temperature 49 °F 52 °F 81 °F (1986)
Min Temperature 27 °F 30 °F -9 °F (1916)
Degree Days  
Heating Degree Days 27 24  
Month to date heating degree days 100 73  
Since 1 July heating degree days 3929 3914  
Cooling Degree Days 0 0  
Month to date cooling degree days 0 0  
Year to date cooling degree days 0 0  
Moisture  
Dew Point 26 °F    
Average Humidity 66    
Maximum Humidity 89    
Minimum Humidity 42    
Precipitation  
Precipitation 0.00 in 0.06 in 0.84 in (1973)
Month to date precipitation 0.00 0.17  
Year to date precipitation 1.32 1.97  
Sea Level Pressure  
Sea Level Pressure 29.85 in    
Wind  
Wind Speed 19 mph (NW)    
Max Wind Speed 35 mph    
Max Gust Speed 41 mph    
Visibility 9 miles    
Events      
T = Trace of Precipitation, MM = Missing Value Source: NWS Daily Summary

Daily Weather History Graph

Daily Weather History Graph

Search for Another Location

Airport or City:

Trip Planner

Search our weather history database for the weather conditions in past years. The results will help you decide how hot, cold, wet, or windy it might be!

Date:

Astronomy

Mar. 03, 2015 Rise Set
Actual Time 7:00 AM CST 6:25 PM CST
Civil Twilight 6:33 AM CST 6:52 PM CST
Nautical Twilight 6:02 AM CST 7:22 PM CST
Astronomical Twilight 5:32 AM CST 7:53 PM CST
Moon 4:50 PM CST (3/3) 5:40 AM CST (3/3)
Length of Visible Light 12h 18m
Length of Day
11h 25m
Waxing Gibbous, 96% of the Moon is Illuminated
Mar 3
Waxing Gibbous
Mar 5
Full
Mar 13
Last Quarter
Mar 20
New
Mar 27
First Quarter

Hourly Weather History & Observations

Time (CST) Temp. Windchill Dew Point Humidity Pressure Visibility Wind Dir Wind Speed Gust Speed Precip Events Conditions
12:23 AM 33.1 °F 22.6 °F 28.9 °F 85% 29.84 in 5.0 mi South 16.1 mph 27.6 mph N/A   Overcast
12:53 AM 33.1 °F 22.6 °F 30.0 °F 89% 29.83 in 4.0 mi South 16.1 mph - N/A   Overcast
1:53 AM 35.1 °F 25.5 °F 30.0 °F 82% 29.80 in 5.0 mi South 15.0 mph 25.3 mph N/A   Haze
2:17 AM 35.1 °F 25.5 °F 30.9 °F 85% 29.77 in 5.0 mi South 15.0 mph 21.9 mph N/A   Overcast
2:53 AM 36.0 °F 26.0 °F 30.9 °F 82% 29.73 in 6.0 mi South 17.3 mph 23.0 mph N/A   Haze
3:53 AM 36.0 °F 23.9 °F 30.9 °F 82% 29.67 in 7.0 mi South 25.3 mph 32.2 mph N/A   Mostly Cloudy
3:57 AM 37.0 °F 24.3 °F 30.9 °F 79% 29.64 in 8.0 mi South 31.1 mph 36.8 mph N/A   Scattered Clouds
4:53 AM 37.9 °F 26.6 °F 32.0 °F 79% 29.69 in 9.0 mi SSW 25.3 mph 33.4 mph N/A   Partly Cloudy
5:53 AM 39.0 °F 29.6 °F 32.0 °F 76% 29.70 in 10.0 mi SSW 18.4 mph - N/A   Partly Cloudy
6:53 AM 39.0 °F 28.0 °F 33.1 °F 79% 29.68 in 10.0 mi SSW 25.3 mph - N/A   Clear
7:53 AM 39.9 °F 30.0 °F 33.1 °F 77% 29.71 in 10.0 mi SW 21.9 mph - N/A   Clear
8:53 AM 44.1 °F 37.4 °F 35.1 °F 71% 29.75 in 10.0 mi WSW 13.8 mph - N/A   Clear
9:28 AM 46.0 °F 37.8 °F 34.0 °F 63% 29.77 in 10.0 mi WNW 23.0 mph 27.6 mph N/A   Mostly Cloudy
9:35 AM 45.0 °F 36.2 °F 34.0 °F 65% 29.78 in 10.0 mi NW 24.2 mph - N/A   Scattered Clouds
9:53 AM 45.0 °F 36.4 °F 32.0 °F 60% 29.83 in 10.0 mi NW 23.0 mph - N/A   Clear
10:53 AM 44.1 °F 35.7 °F 28.9 °F 55% 29.86 in 10.0 mi NNW 20.7 mph - N/A   Clear
11:53 AM 48.0 °F - 27.0 °F 44% 29.88 in 10.0 mi NNW 23.0 mph - N/A   Clear
12:53 PM 48.9 °F - 27.0 °F 43% 29.88 in 10.0 mi NNW 18.4 mph 29.9 mph N/A   Clear
1:53 PM 46.0 °F 38.5 °F 26.1 °F 46% 29.87 in 10.0 mi North 19.6 mph - N/A   Clear
2:53 PM 46.9 °F - 26.1 °F 44% 29.89 in 10.0 mi North 18.4 mph - N/A   Clear
3:53 PM 41.0 °F 31.4 °F 24.1 °F 51% 29.91 in 10.0 mi North 21.9 mph - N/A   Clear
4:53 PM 39.0 °F 29.0 °F 19.9 °F 46% 29.93 in 10.0 mi North 20.7 mph - N/A   Clear
5:53 PM 37.9 °F 28.5 °F 19.0 °F 47% 29.94 in 10.0 mi NNE 17.3 mph - N/A   Clear
6:53 PM 35.1 °F 24.5 °F 17.1 °F 48% 29.99 in 10.0 mi North 18.4 mph - N/A   Clear
7:53 PM 34.0 °F 23.8 °F 17.1 °F 50% 30.01 in 10.0 mi NNE 16.1 mph - N/A   Clear
8:53 PM 33.8 °F 25.8 °F 17.6 °F 52% 30.03 in 10.0 mi North 10.4 mph - N/A   Clear
9:53 PM 30.9 °F 19.1 °F 12.9 °F 47% 30.06 in 10.0 mi North 18.4 mph - N/A   Clear
10:53 PM 27.0 °F 15.2 °F 9.0 °F 47% 30.12 in 10.0 mi North 15.0 mph - N/A   Clear
11:53 PM 28.0 °F 17.0 °F 7.0 °F 41% 30.14 in 10.0 mi North 13.8 mph - N/A   Overcast